User: anonymous   Login
Location: Pl�tzky
(52.0521°N, 11.8020°E)
Time: 21:37:29
(UTC+00:00)
Language:

Envisat - Orbit

View from above orbital plane
View from above orbital plane
View from above satellite
View from above satellite

Ground track
Ground track

The orbit data is extracted from the following two-line orbital elements,

1 27386U 02009A   20020.59548715 +.00000019 +00000-0 +19852-4 0  9994
2 27386 098.1400 035.4487 0001184 088.1635 020.1600 14.37969113937154
Epoch (UTC): 20 January 2020 14:17:30
Eccentricity: 0.0001184
inclination: 98.1400°
perigee height: 764 km
apogee height: 766 km
right ascension of ascending node: 35.4487°
argument of perigee: 88.1635°
revolutions per day: 14.37969113
mean anomaly at epoch: 20.1600°
orbit number at epoch: 93715

The dashed part of the orbit path shows where the satellite is in the earth's shadow,  

DLR